Location: Winthrop
(48.4780°N, 120.1850°W)
Time: 22:37:29
(UTC-07:00)

A-11 Canister half - Pass Details

Date: 05 June 2023
Orbit: 1515 x 1684 km, 47.2° (Epoch: 29 September)

Event Time Altitude Azimuth Distance (km) Brightness Sun altitude
Exits shadow 02:46:11 19° 211° (SSW) 3,160 10.0 -15.1°
Maximum altitude 02:53:01 48° 147° (SSE) 1,979 9.4 -14.6°
Drops below altitude 10° 03:01:55 10° 76° (ENE) 3,734 11.6 -13.9°
Sets 03:05:03 0° 72° (ENE) 4,701 12.3 -13.6°
